COSMOS 1275 DEB, 13489

Orbit data source: Space-Track

COSMOS 1275 DEB, 13489 is space debris in LEO originally from a launch on Thu, 04 Jun 1981 UTC launched from the Plesetsk Missile And Space Complex (PKMTR). Debris objects in space refer to the collection of defunct objects orbiting the Earth. Examples of debris include non-operational satellites, rocket bodies, and fragments generated from explosions, collisions, or faulty payload assembly.

Loading next visibility...
Identifier
13489, 1981-053GK
Orbit
LEO
Country
Flag of CISCIS
Related business
Manufacturer
Unknown
Mission
Spacecraft
Bus & Motor
Unknown
Mass
Unknown
Launch date (UTC)
1981-06-04 (45 years ago)
Launch vehicle
Unknown
Launch site
Plesetsk Missile And Space Complex (PKMTR)
Object type
Payload
Rocket body
Debris
Shape & HBR
Unknown shape, 0.1 m
Radar Cross Section
Small (<0.1 m²)

Expand to show TLE details & history
Last TLE update: 23 hours ago

TLE from 23 hours ago
0 COSMOS 1275 DEB
1 13489U 81053GK  26072.29062838  .00001179  00000-0  17499-2 0  9997
2 13489  83.1403   4.1020 0240212  64.6228  87.3349 13.41921523129155
Epoch: 2026-03-13T06:58Z
TLE epoch observation values (Epoch: 2026-03-13T06:58:30.292Z)
Latitude
25.12392°
Longitude
-94.6699°
Altitude
1,101.092 km
Speed
7.306 km/s
True Right ascension
12h 03m 32s
True Declination
24° 59' 53"
Sunlit
Object was in full shadow at epoch
Visualization orbit readout
Latitude
Unknown
Longitude
Unknown
Altitude
Unknown
Speed
Unknown
Apparent Right ascension
Unknown
Apparent Declination
Unknown
Sunlit
N/A
Visualization observer readout
Local Sidereal Time
09:55:44
Azimuth
Unknown
Elevation
Unknown
Doppler factor
Unknown
Orbital elements
Apogee altitude
1,278.932 km
Perigee altitude
919.698 km
Semi-major axis
7,477.452 km
Eccentricity
0.02402
Inclination
83.1403°
RAAN
4.102°
Arg. of periapsis
64.6228°
True anomaly
90.08733°
Mean anomaly
87.3349°
Eccentric anomaly
88.71087°
Mean motion
3.3567 °/min
Orbital period
107.25 mins
BSTAR
0.0017499
Loading maneuver chart data...
Computing Atmospheric mass density...
Loading historical data...
Loading historical data...
Loading historical data...
Loading historical data...
Loading historical data...
Loading historical data...
Loading historical data...

Documentation

Showing up to 5 results
|